Overview Statistics Trail Chart Weather Telemetry Raw packets
 

This is the latest recevied weather packets stored in our database for station/object 4S6DRJ-13. If no packets are shown the sender has not sent any weather packets the latest 10 day(s).

<< 205 206 207 208 209 210 211 >>
Time Temp. Humidity Pressure Rain* Wind** Luminosity Snow
1788161580 30.56° C 69% 1008.3 hPa 0 mm 0.89 m/s, 244° 531 W/m² -
1788161520 30.56° C 69% 1008.1 hPa 0 mm 1.79 m/s, 235° 1110 W/m² -
1788161459 30.56° C 70% 1008.2 hPa 0 mm 1.79 m/s, 247° 377 W/m² -
1788161398 30.56° C 70% 1008.2 hPa 0 mm 0.89 m/s, 204° 395 W/m² -
1788161337 30.56° C 69% 1008.2 hPa 0 mm 0.89 m/s, 342° 1133 W/m² -
1788161276 30.56° C 69% 1008.1 hPa 0 mm 2.68 m/s, 307° 497 W/m² -
1788161215 30.56° C 71% 1008.2 hPa 0 mm 1.34 m/s, 240° 1145 W/m² -
1788161154 30.56° C 70% 1008.1 hPa 0 mm 1.79 m/s, 308° 414 W/m² -
1788161093 30.56° C 70% 1008.1 hPa 0 mm 1.34 m/s, 255° 409 W/m² -
1788161032 30.56° C 70% 1008.3 hPa 0 mm 1.79 m/s, 275° 516 W/m² -
1788160971 30.56° C 70% 1008.4 hPa 0 mm 1.79 m/s, 211° 1143 W/m² -
1788160910 31.11° C 69% 1008.2 hPa 0 mm 3.58 m/s, 230° 497 W/m² -
1788160849 31.11° C 69% 1008.4 hPa 0 mm 1.34 m/s, 220° 377 W/m² -
1788160789 31.11° C 70% 1008.3 hPa 0 mm 1.34 m/s, 226° 340 W/m² -
1788160727 31.11° C 69% 1008.2 hPa 0 mm 2.24 m/s, 128° 445 W/m² -
1788160666 30.56° C 70% 1008.3 hPa 0 mm 2.24 m/s, 230° 403 W/m² -
1788160605 30.56° C 70% 1008.2 hPa 0 mm 0 m/s 1141 W/m² -
1788160544 31.11° C 70% 1008.4 hPa 0 mm 0.89 m/s, 121° 434 W/m² -
1788160485 31.11° C 70% 1008.3 hPa 0 mm 1.79 m/s, 283° 352 W/m² -
1788160422 31.11° C 69% 1008.3 hPa 0 mm 1.79 m/s, 255° 360 W/m² -
1788160361 31.11° C 69% 1008.2 hPa 0 mm 0.89 m/s, 238° 1123 W/m² -
1788160300 31.67° C 69% 1008.6 hPa 0 mm 0.89 m/s, 196° 471 W/m² -
1788160239 31.67° C 69% 1008.3 hPa 0 mm 2.24 m/s, 172° 409 W/m² -
1788160178 31.11° C 69% 1008.4 hPa 0 mm 1.79 m/s, 257° 449 W/m² -
1788160118 31.11° C 70% 1008.4 hPa 0 mm 1.79 m/s, 146° 351 W/m² -

* Rain latest hour (hover to see other rain measurements)
** Current wind speed in m/s (hover to see current wind gust speed)